This is the latest recevied weather packets stored in our database for station/object VK4TW-13. If no packets are shown the sender has not sent any weather packets the latest 10 day(s).
| Time | Temp. | Humidity | Pressure | Rain* | Wind** | Luminosity | Snow |
|---|---|---|---|---|---|---|---|
| 1788145987 | 25.56° C | 100% | 1025.1 hPa | 0 mm | - | - | - |
| 1788145805 | 25.56° C | 100% | 1025.2 hPa | 0 mm | - | - | - |
| 1788145415 | 25.56° C | 100% | 1025 hPa | 0 mm | - | - | - |
| 1788145178 | 25.56° C | 100% | 1025.2 hPa | 0 mm | - | - | - |
| 1788144896 | 25.56° C | 100% | 1025.2 hPa | 0 mm | - | - | - |
| 1788144696 | 25.56° C | 100% | 1025.1 hPa | 0 mm | - | - | - |
| 1788144453 | 26.11° C | 100% | 1025.3 hPa | 0 mm | - | - | - |
| 1788144166 | 26.11° C | 100% | 1025.2 hPa | 0 mm | - | - | - |
| 1788143794 | 25.56° C | 100% | 1025.4 hPa | 0 mm | - | - | - |
| 1788143624 | 25.56° C | 100% | 1025.4 hPa | 0 mm | - | - | - |
| 1788143350 | 26.11° C | 100% | 1025.5 hPa | 0 mm | - | - | - |
| 1788142885 | 26.11° C | 100% | 1025.7 hPa | 0 mm | - | - | - |
| 1788142631 | 26.11° C | 100% | 1025.7 hPa | 0 mm | - | - | - |
| 1788142030 | 26.67° C | 100% | 1025.8 hPa | 0 mm | - | - | - |
| 1788141429 | 26.67° C | 100% | 1025.7 hPa | 0 mm | - | - | - |
| 1788141247 | 26.67° C | 100% | 1025.8 hPa | 0 mm | - | - | - |
| 1788141066 | 26.67° C | 100% | 1025.9 hPa | 0 mm | - | - | - |
| 1788140465 | 26.67° C | 100% | 1026 hPa | 0 mm | - | - | - |
| 1788139865 | 26.67° C | 100% | 1026.1 hPa | 0 mm | - | - | - |
| 1788139531 | 27.22° C | 100% | 1026.2 hPa | 0 mm | - | - | - |
| 1788139022 | 26.67° C | 100% | 1026.4 hPa | 0 mm | - | - | - |
| 1788138825 | 26.67° C | 100% | 1026.5 hPa | 0 mm | - | - | - |
| 1788138409 | 26.11° C | 100% | 1026.5 hPa | 0 mm | - | - | - |
| 1788137809 | 26.11° C | 100% | 1026.5 hPa | 0 mm | - | - | - |
| 1788137627 | 26.11° C | 100% | 1026.6 hPa | 0 mm | - | - | - |
* Rain since midnight (hover to see other rain measurements)
** Current wind speed in m/s (hover to see current wind gust speed)